DL1RF-13 Weather Reports


time (UTC)temp
C
wind
direction
speed
KPH
gust
KPH
rain 1hr
cm
rain 24hr
cm
rain mn
cm
humidity
%
barometer
mb
20200217013005 7 180 3.2 9.7 0.00 0.00 0.00 74 1015.9
20200217012007 7 180 3.2 8.0 0.00 0.00 0.00 76 1015.8
20200217011008 7 180 4.8 1.6 0.00 0.00 0.00 74 1016.0
20200217010007 8 180 4.8 9.7 0.00 0.00 0.00 73 1016.0
20200217005009 8 180 3.2 6.4 0.00 0.00 0.00 73 1015.9
20200217004006 8 180 4.8 11.3 0.00 0.00 0.00 71 1015.8
20200217003006 7 180 4.8 9.7 0.00 0.00 0.00 73 1015.7
20200217002007 8 180 4.8 11.3 0.00 0.00 0.00 74 1015.7
20200217001008 8 180 6.4 8.0 0.00 0.00 0.00 73 1015.7
20200217000006 7 203 3.2 8.0 0.00 0.00 0.00 75 1015.8
20200216235008 7 225 4.8 4.8 0.00 0.00 0.00 74 1015.9
20200216234008 7 248 3.2 3.2 0.00 0.00 0.00 73 1016.0
20200216233007 7 225 3.2 6.4 0.00 0.00 0.00 76 1016.1
20200216232008 7 203 3.2 1.6 0.00 0.00 0.00 79 1016.0
20200216231006 7 180 4.8 8.0 0.00 0.00 0.00 78 1016.0
20200216230020 7 180 4.8 3.2 0.00 0.00 0.00 79 1015.9
20200216225008 7 203 3.2 4.8 0.00 0.00 0.00 79 1015.7
20200216224006 7 225 3.2 8.0 0.00 0.00 0.00 80 1015.6
20200216223008 6 225 6.4 8.0 0.00 0.00 0.00 80 1015.6
20200216222010 6 225 3.2 6.4 0.00 0.00 0.00 81 1015.6
20200216221008 6 225 3.2 4.8 0.00 0.00 0.00 81 1015.5
20200216220008 6 225 1.6 4.8 0.00 0.00 0.00 81 1015.4
20200216215010 5 225 1.6 3.2 0.00 0.00 0.00 84 1015.4
20200216214008 6 203 1.6 1.6 0.00 0.00 0.00 78 1015.4
20200216213008 7 248 1.6 1.6 0.00 0.00 0.00 80 1015.3
20200216212010 6 225 1.6 3.2 0.00 0.00 0.00 81 1015.4
20200216211008 6 203 1.6 0.0 0.00 0.00 0.00 84 1015.3
20200216210010 5 225 3.2 1.6 0.00 0.00 0.00 88 1015.4
20200216205010 6 180 4.8 4.8 0.00 0.00 0.00 85 1015.4
20200216204010 6 203 3.2 3.2 0.00 0.00 0.00 87 1015.5
20200216203008 6 203 1.6 1.6 0.00 0.00 0.00 89 1015.6
20200216202009 5 180 0.0 1.6 0.00 0.00 0.00 87 1015.6
20200216201007 6 113 1.6 0.0 0.00 0.00 0.00 85 1015.8
20200216200007 6 158 1.6 1.6 0.00 0.00 0.00 86 1016.0
20200216195011 6 158 1.6 1.6 0.00 0.00 0.00 85 1015.9
20200216194008 7 135 3.2 3.2 0.00 0.00 0.00 79 1016.0
20200216193007 8 135 1.6 1.6 0.00 0.00 0.00 78 1016.0
20200216192009 8 225 1.6 0.0 0.00 0.00 0.00 76 1016.2
20200216191007 8 225 3.2 3.2 0.00 0.00 0.00 75 1016.2
20200216190009 8 293 1.6 1.6 0.00 0.00 0.00 73 1016.2
20200216185010 9 270 8.0 8.0 0.00 0.00 0.00 72 1016.4
20200216184008 8 270 11.3 6.4 0.00 0.00 0.00 73 1016.4
20200216183010 10 180 3.2 1.6 0.00 0.00 0.00 67 1015.9
20200216182007 10 180 8.0 3.2 0.00 0.00 0.00 63 1015.9
20200216181009 11 180 8.0 9.7 0.00 0.00 0.00 62 1015.7
20200216180009 11 180 11.3 12.9 0.00 0.00 0.00 62 1015.5
20200216175010 11 158 9.7 14.5 0.00 0.00 0.00 63 1015.5
20200216174008 11 180 8.0 9.7 0.00 0.00 0.00 63 1015.6
20200216173007 11 158 4.8 6.4 0.00 0.00 0.00 63 1015.6
20200216172010 11 158 4.8 3.2 0.00 0.00 0.00 63 1015.6
20200216171008 11 158 4.8 1.6 0.00 0.00 0.00 63 1015.6
20200216170007 11 158 6.4 4.8 0.00 0.00 0.00 64 1015.6
20200216165007 12 158 4.8 4.8 0.00 0.00 0.00 64 1015.7
20200216164009 12 113 3.2 4.8 0.00 0.00 0.00 64 1015.8
20200216163007 12 135 3.2 4.8 0.00 0.00 0.00 63 1015.8
20200216162007 12 135 4.8 6.4 0.00 0.00 0.00 62 1015.7
20200216161009 12 158 6.4 9.7 0.00 0.00 0.00 63 1015.9
20200216160007 12 158 8.0 9.7 0.00 0.00 0.00 62 1016.1
20200216155009 12 158 8.0 6.4 0.00 0.00 0.00 63 1016.2
20200216154007 12 158 6.4 6.4 0.00 0.00 0.00 64 1016.3
20200216153009 12 158 9.7 12.9 0.00 0.00 0.00 62 1016.3
20200216152007 12 158 6.4 4.8 0.00 0.00 0.00 62 1016.4
20200216151010 12 180 8.0 4.8 0.00 0.00 0.00 61 1016.5
20200216150009 13 158 11.3 6.4 0.00 0.00 0.00 60 1016.5
20200216145007 13 180 14.5 9.7 0.00 0.00 0.00 59 1016.8
20200216144009 13 180 16.1 19.3 0.00 0.00 0.00 59 1016.8
20200216143007 13 180 11.3 17.7 0.00 0.00 0.00 57 1017.0
20200216142009 13 180 12.9 11.3 0.00 0.00 0.00 56 1017.3
20200216141010 13 158 11.3 9.7 0.00 0.00 0.00 59 1017.3
20200216140009 13 158 12.9 16.1 0.00 0.00 0.00 63 1017.5
20200216135007 13 180 12.9 19.3 0.00 0.00 0.00 62 1017.6
20200216134009 13 158 11.3 9.7 0.00 0.00 0.00 63 1017.7
20200216133009 13 158 9.7 6.4 0.00 0.00 0.00 62 1018.0
20200216132007 12 158 6.4 11.3 0.00 0.00 0.00 65 1018.1
20200216131009 13 180 8.0 4.8 0.00 0.00 0.00 64 1018.1
20200216130009 12 158 6.4 1.6 0.00 0.00 0.00 63 1018.4
20200216125008 12 158 6.4 11.3 0.00 0.00 0.00 67 1018.5
20200216124008 12 180 4.8 8.0 0.00 0.00 0.00 68 1018.7
20200216123009 12 180 4.8 4.8 0.00 0.00 0.00 67 1019.0
20200216122007 12 180 3.2 8.0 0.00 0.00 0.00 65 1019.1
20200216121008 11 180 4.8 9.7 0.00 0.00 0.00 65 1019.1
20200216120009 11 225 4.8 8.0 0.00 0.00 0.00 67 1019.4
20200216115007 11 248 3.2 4.8 0.00 0.00 0.00 65 1019.4
20200216114009 11 270 3.2 3.2 0.00 0.00 0.00 64 1019.6
20200216113009 11 248 1.6 1.6 0.00 0.00 0.00 65 1019.6
20200216112007 10 248 1.6 1.6 0.00 0.00 0.00 68 1019.6
20200216111010 10 135 3.2 3.2 0.00 0.00 0.00 64 1019.7
20200216110007 10 180 3.2 8.0 0.00 0.00 0.00 67 1019.5
20200216105009 10 158 3.2 4.8 0.00 0.00 0.00 66 1019.8
20200216104009 9 135 3.2 3.2 0.00 0.00 0.00 70 1019.9
20200216103007 8 203 1.6 3.2 0.00 0.00 0.00 77 1019.9
20200216102009 8 248 3.2 1.6 0.00 0.00 0.00 76 1020.0
20200216101007 7 270 1.6 4.8 0.00 0.00 0.00 79 1020.1
20200216100009 6 248 1.6 3.2 0.00 0.00 0.00 82 1020.1
20200216095007 6 293 1.6 3.2 0.00 0.00 0.00 85 1020.1
20200216094009 5 135 3.2 3.2 0.00 0.00 0.00 85 1019.9
20200216093007 5 158 3.2 8.0 0.00 0.00 0.00 83 1019.6
20200216092010 5 158 1.6 1.6 0.00 0.00 0.00 89 1019.8
20200216091007 5 135 1.6 3.2 0.00 0.00 0.00 86 1019.8
20200216090009 4 270 1.6 0.0 0.00 0.00 0.00 88 1020.0
20200216085007 5 45 1.6 3.2 0.00 0.00 0.00 83 1020.2
20200216084009 5 45 1.6 0.0 0.00 0.00 0.00 85 1020.1
20200216083010 5 68 1.6 3.2 0.00 0.00 0.00 82 1020.1
20200216082006 5 135 1.6 4.8 0.00 0.00 0.00 84 1020.2
20200216081009 4 248 1.6 0.0 0.00 0.00 0.00 87 1020.1
20200216080007 4 225 1.6 3.2 0.00 0.00 0.00 84 1020.0
20200216075007 3 293 1.6 3.2 0.00 0.00 0.00 85 1020.1
20200216074009 3 68 0.0 1.6 0.00 0.00 0.00 88 1020.2
20200216073007 2 180 1.6 4.8 0.00 0.00 0.00 85 1020.1
20200216072007 3 270 1.6 3.2 0.00 0.00 0.00 83 1020.2
20200216071009 2 315 1.6 1.6 0.00 0.00 0.00 86 1020.3
20200216070007 2 315 1.6 3.2 0.00 0.00 0.00 86 1020.3
20200216065009 2 315 1.6 1.6 0.00 0.00 0.00 87 1020.2
20200216064008 2 68 0.0 0.0 0.00 0.00 0.00 87 1020.3
20200216063010 2 315 0.0 0.0 0.00 0.00 0.00 86 1020.4
20200216062007 2 315 1.6 3.2 0.00 0.00 0.00 87 1020.3
20200216061007 2 113 0.0 3.2 0.00 0.00 0.00 87 1020.3
20200216060009 2 135 1.6 1.6 0.00 0.00 0.00 86 1020.5
20200216055009 1 158 1.6 1.6 0.00 0.00 0.00 89 1020.5
20200216054007 2 158 1.6 3.2 0.00 0.00 0.00 89 1020.5
20200216053007 1 158 1.6 4.8 0.00 0.00 0.00 90 1020.5
20200216052006 1 135 1.6 8.0 0.00 0.00 0.00 90 1020.2
20200216051009 1 113 3.2 0.0 0.00 0.00 0.00 90 1020.2
20200216050007 2 113 4.8 6.4 0.00 0.00 0.00 92 1020.2
20200216045004 1 113 3.2 6.4 0.00 0.00 0.00 92 1020.5
20200216044009 2 135 3.2 3.2 0.00 0.00 0.00 91 1020.7
20200216043009 1 180 3.2 1.6 0.00 0.00 0.00 91 1020.7
20200216042006 1 158 3.2 8.0 0.00 0.00 0.00 88 1020.6
20200216041006 2 90 1.6 4.8 0.00 0.00 0.00 89 1020.7
20200216040008 2 293 1.6 4.8 0.00 0.00 0.00 88 1020.8
20200216035006 2 248 1.6 3.2 0.00 0.00 0.00 89 1020.7
20200216034006 2 180 3.2 6.4 0.00 0.00 0.00 88 1020.6
20200216033008 2 180 1.6 1.6 0.00 0.00 0.00 88 1020.9
20200216032008 2 180 3.2 3.2 0.00 0.00 0.00 89 1020.9
20200216031006 1 180 1.6 8.0 0.00 0.00 0.00 93 1020.9
20200216030008 1 135 3.2 3.2 0.00 0.00 0.00 93 1020.9
20200216025006 1 158 3.2 8.0 0.00 0.00 0.00 90 1021.0
20200216024007 2 135 3.2 8.0 0.00 0.00 0.00 90 1021.0
20200216023008 2 225 0.0 0.0 0.00 0.00 0.00 91 1021.3
20200216022006 2 248 1.6 3.2 0.00 0.00 0.00 93 1021.4
20200216021006 1 293 1.6 3.2 0.00 0.00 0.00 94 1021.3
20200216020008 1 113 1.6 0.0 0.00 0.00 0.00 92 1021.5
20200216015006 2 113 1.6 4.8 0.00 0.00 0.00 93 1021.7
20200216014006 2 135 1.6 6.4 0.00 0.00 0.00 93 1021.9